"read_dt","SO2 (ppb)","flags","PMT voltage (V)","lamp voltage (V)","lamp intensity (Hz)","internal temp (C)","react chamber temp (C)","sample flow (l/min)","pres (mmHg)","SO2 bkg (ppb)","SO2 coefficient"
2013-08-19 00:00:00,1281E-4,5C000000,-0724,0939,11239,028.8,045.4,0.388,732.9,01.19,0.508
2013-08-19 00:01:00,8330E-5,5C000000,-0724,0938,10880,028.8,045.4,0.388,733.0,01.19,0.508
2013-08-19 00:02:00,2441E-4,5C000000,-0724,0938,11248,028.9,045.4,0.388,732.9,01.19,0.508
2013-08-19 00:03:00,1533E-4,5C000000,-0724,0938,11068,028.8,045.4,0.388,732.9,01.19,0.508
2013-08-19 00:04:00,1573E-4,5C000000,-0724,0938,11135,028.8,045.4,0.388,732.9,01.19,0.508
2013-08-19 00:05:00,1905E-4,5C000000,-0724,0940,11171,028.8,045.4,0.388,732.9,01.19,0.508
2013-08-19 00:06:00,1860E-4,5C000000,-0724,0939,11256,028.8,045.3,0.388,732.9,01.19,0.508
2013-08-19 00:07:00,2063E-4,5C000000,-0724,0939,11094,028.8,045.4,0.388,732.9,01.19,0.508
2013-08-19 00:08:00,9983E-5,5C000000,-0724,0938,11294,028.8,045.4,0.388,732.9,01.19,0.508
2013-08-19 00:09:00,1325E-4,5C000000,-0724,0938,11034,028.8,045.4,0.388,732.8,01.19,0.508
2013-08-19 00:10:00,2128E-4,5C000000,-0724,0937,11179,028.8,045.4,0.388,732.9,01.19,0.508
2013-08-19 00:11:00,1169E-4,5C000000,-0724,0938,11081,028.9,045.4,0.388,732.8,01.19,0.508
2013-08-19 00:12:00,1892E-4,5C000000,-0724,0938,11132,028.8,045.4,0.388,732.9,01.19,0.508
2013-08-19 00:13:00,8662E-5,5C000000,-0724,0938,11111,028.8,045.4,0.388,732.9,01.19,0.508
2013-08-19 00:14:00,1388E-4,5C000000,-0724,0939,11106,028.9,045.4,0.388,732.9,01.19,0.508
2013-08-19 00:15:00,1625E-4,5C000000,-0724,0939,11217,028.9,045.4,0.388,732.8,01.19,0.508
2013-08-19 00:16:00,1852E-4,5C000000,-0724,0939,11089,028.8,045.4,0.388,732.9,01.19,0.508
2013-08-19 00:17:00,2541E-4,5C000000,-0724,0939,11067,028.8,045.4,0.388,732.8,01.19,0.508
2013-08-19 00:18:00,1545E-4,5C000000,-0724,0939,11045,028.8,045.4,0.388,732.8,01.19,0.508
2013-08-19 00:19:00,1804E-4,5C000000,-0724,0938,11157,028.8,045.4,0.388,732.7,01.19,0.508
2013-08-19 00:20:00,2135E-4,5C000000,-0724,0938,11184,028.8,045.4,0.388,732.8,01.19,0.508
2013-08-19 00:21:00,1637E-4,5C000000,-0724,0938,11250,028.8,045.4,0.388,732.8,01.19,0.508
2013-08-19 00:22:00,1061E-4,5C000000,-0724,0939,11201,028.8,045.4,0.388,732.9,01.19,0.508
2013-08-19 00:23:00,1534E-4,5C000000,-0724,0938,11092,028.8,045.4,0.388,733.0,01.19,0.508
2013-08-19 00:24:00,1456E-4,5C000000,-0724,0938,11257,028.8,045.4,0.388,732.9,01.19,0.508
2013-08-19 00:25:00,1328E-4,5C000000,-0724,0938,11063,028.8,045.4,0.388,732.8,01.19,0.508
2013-08-19 00:26:00,1949E-4,5C000000,-0724,0939,11269,028.8,045.4,0.388,732.9,01.19,0.508
2013-08-19 00:27:00,1441E-4,5C000000,-0724,0938,11304,028.8,045.4,0.388,733.0,01.19,0.508
2013-08-19 00:28:00,1466E-4,5C000000,-0724,0938,11144,028.8,045.4,0.388,732.9,01.19,0.508
2013-08-19 00:29:00,7189E-5,5C000000,-0724,0938,11230,028.8,045.4,0.388,733.0,01.19,0.508
2013-08-19 00:30:00,2424E-4,5C000000,-0724,0937,11111,028.8,045.4,0.388,733.0,01.19,0.508
2013-08-19 00:31:00,1520E-4,5C000000,-0724,0938,11328,028.8,045.4,0.389,733.0,01.19,0.508
2013-08-19 00:32:00,2048E-4,5C000000,-0724,0938,11107,028.8,045.4,0.388,733.0,01.19,0.508
2013-08-19 00:33:00,1190E-4,5C000000,-0724,0937,11104,028.8,045.4,0.388,733.0,01.19,0.508
2013-08-19 00:34:00,1250E-4,5C000000,-0724,0939,11219,028.8,045.4,0.388,733.0,01.19,0.508
2013-08-19 00:35:00,2096E-4,5C000000,-0724,0939,11082,028.8,045.4,0.388,733.0,01.19,0.508
2013-08-19 00:36:00,1595E-4,5C000000,-0724,0938,11252,028.8,045.4,0.388,733.0,01.19,0.508
2013-08-19 00:37:00,1491E-4,5C000000,-0724,0939,11098,028.8,045.4,0.388,733.0,01.19,0.508
2013-08-19 00:38:00,1387E-4,5C000000,-0724,0939,11068,028.8,045.4,0.388,733.0,01.19,0.508
2013-08-19 00:39:00,1043E-4,5C000000,-0724,0938,11239,028.8,045.4,0.389,733.0,01.19,0.508
2013-08-19 00:40:00,2439E-4,5C000000,-0724,0938,11078,028.8,045.4,0.388,733.0,01.19,0.508
2013-08-19 00:41:00,1463E-4,5C000000,-0724,0939,11246,028.8,045.4,0.389,733.0,01.19,0.508
2013-08-19 00:42:00,1174E-4,5C000000,-0724,0939,11182,028.8,045.4,0.388,733.1,01.19,0.508
2013-08-19 00:43:00,1128E-4,5C000000,-0724,0938,11026,028.8,045.4,0.389,733.0,01.19,0.508
2013-08-19 00:44:00,1556E-4,5C000000,-0724,0939,11030,028.8,045.4,0.388,733.0,01.19,0.508
2013-08-19 00:45:00,2159E-4,5C000000,-0724,0939,11091,028.8,045.4,0.389,733.0,01.19,0.508
2013-08-19 00:46:00,1718E-4,5C000000,-0724,0939,11194,028.8,045.4,0.388,733.0,01.19,0.508
2013-08-19 00:47:00,1816E-4,5C000000,-0724,0937,11149,028.8,045.4,0.388,733.0,01.19,0.508
2013-08-19 00:48:00,2366E-4,5C000000,-0724,0937,11078,028.8,045.4,0.388,733.1,01.19,0.508
2013-08-19 00:49:00,2016E-4,5C000000,-0724,0939,11071,028.8,045.4,0.389,733.1,01.19,0.508
2013-08-19 00:50:00,1467E-4,5C000000,-0724,0939,11131,028.8,045.4,0.388,733.0,01.19,0.508
2013-08-19 00:51:00,1072E-4,5C000000,-0724,0938,11024,028.8,045.4,0.389,733.2,01.19,0.508
2013-08-19 00:52:00,2094E-4,5C000000,-0724,0938,11174,028.8,045.4,0.388,733.1,01.19,0.508
2013-08-19 00:53:00,1958E-4,5C000000,-0724,0937,11249,028.8,045.4,0.389,733.1,01.19,0.508
2013-08-19 00:54:00,9875E-5,5C000000,-0724,0938,10962,028.8,045.4,0.388,733.0,01.19,0.508
2013-08-19 00:55:00,1837E-4,5C000000,-0724,0938,11144,028.8,045.4,0.389,733.1,01.19,0.508
2013-08-19 00:56:00,1641E-4,5C000000,-0724,0939,11117,028.8,045.4,0.388,733.1,01.19,0.508
2013-08-19 00:57:00,1779E-4,5C000000,-0724,0938,11155,028.8,045.4,0.389,733.1,01.19,0.508
2013-08-19 00:58:00,1341E-4,5C000000,-0724,0938,11164,028.8,045.4,0.388,733.0,01.19,0.508
2013-08-19 00:59:00,8041E-5,5C000000,-0724,0938,11092,028.8,045.4,0.388,733.0,01.19,0.508
2013-08-19 01:00:00,1747E-4,5C000000,-0724,0939,11027,028.8,045.4,0.388,733.0,01.19,0.508
2013-08-19 01:01:00,1529E-4,5C000000,-0724,0939,11225,028.8,045.4,0.388,733.0,01.19,0.508
2013-08-19 01:02:00,1393E-4,5C000000,-0724,0938,10935,028.8,045.4,0.388,733.0,01.19,0.508
2013-08-19 01:03:00,1725E-4,5C000000,-0724,0939,11010,028.8,045.4,0.388,733.0,01.19,0.508
2013-08-19 01:04:00,1988E-4,5C000000,-0724,0939,11027,028.8,045.4,0.388,733.1,01.19,0.508
2013-08-19 01:05:00,2228E-4,5C000000,-0724,0939,11175,028.8,045.4,0.389,733.0,01.19,0.508
2013-08-19 01:06:00,2709E-4,5C000000,-0724,0937,10824,028.8,045.4,0.388,733.0,01.19,0.508
2013-08-19 01:07:00,1564E-4,5C000000,-0724,0938,11020,028.8,045.4,0.388,733.0,01.19,0.508
2013-08-19 01:08:00,2138E-4,5C000000,-0724,0940,11260,028.8,045.4,0.388,733.0,01.19,0.508
2013-08-19 01:09:00,2660E-4,5C000000,-0724,0939,11044,028.8,045.4,0.388,733.1,01.19,0.508
2013-08-19 01:10:00,1644E-4,5C000000,-0724,0938,11209,028.8,045.4,0.388,733.1,01.19,0.508
2013-08-19 01:11:00,3022E-4,5C000000,-0724,0940,11073,028.8,045.4,0.388,733.2,01.19,0.508
2013-08-19 01:12:00,1041E-4,5C000000,-0724,0939,11077,028.8,045.4,0.388,733.1,01.19,0.508
2013-08-19 01:13:00,1318E-4,5C000000,-0724,0939,11103,028.8,045.4,0.388,733.1,01.19,0.508
2013-08-19 01:14:00,1385E-4,5C000000,-0724,0939,11106,028.8,045.4,0.388,733.1,01.19,0.508
2013-08-19 01:15:00,2209E-4,5C000000,-0724,0939,11124,028.8,045.4,0.388,733.1,01.19,0.508
2013-08-19 01:16:00,4094E-5,5C000000,-0724,0939,11096,028.8,045.4,0.388,733.1,01.19,0.508
2013-08-19 01:17:00,2228E-4,5C000000,-0724,0938,11140,028.9,045.4,0.388,733.1,01.19,0.508
2013-08-19 01:18:00,1586E-4,5C000000,-0724,0939,10996,028.8,045.4,0.388,733.2,01.19,0.508
2013-08-19 01:19:00,1482E-4,5C000000,-0724,0939,11219,028.8,045.4,0.388,733.2,01.19,0.508
2013-08-19 01:20:00,2106E-4,5C000000,-0724,0938,11240,028.8,045.4,0.388,733.2,01.19,0.508
2013-08-19 01:21:00,1675E-4,5C000000,-0724,0938,11259,028.8,045.4,0.388,733.3,01.19,0.508
2013-08-19 01:22:00,2763E-4,5C000000,-0724,0939,11059,028.9,045.4,0.388,733.3,01.19,0.508
2013-08-19 01:23:00,1632E-4,5C000000,-0724,0939,11235,028.9,045.4,0.388,733.3,01.19,0.508
2013-08-19 01:24:00,1836E-4,5C000000,-0724,0937,11211,028.9,045.4,0.388,733.1,01.19,0.508
2013-08-19 01:25:00,1492E-4,5C000000,-0724,0938,11093,028.9,045.4,0.388,733.2,01.19,0.508
2013-08-19 01:26:00,1768E-4,5C000000,-0724,0939,11148,028.9,045.4,0.388,733.2,01.19,0.508
2013-08-19 01:27:00,1964E-4,5C000000,-0724,0938,11175,028.9,045.4,0.388,733.2,01.19,0.508
2013-08-19 01:28:00,2452E-4,5C000000,-0724,0940,11020,028.9,045.4,0.388,733.2,01.19,0.508
2013-08-19 01:29:00,1853E-4,5C000000,-0724,0938,11182,028.9,045.4,0.388,733.2,01.19,0.508
2013-08-19 01:30:00,1178E-4,5C000000,-0724,0939,11041,028.9,045.4,0.388,733.2,01.19,0.508
2013-08-19 01:31:00,1529E-4,5C000000,-0724,0939,10986,028.9,045.4,0.388,733.2,01.19,0.508
2013-08-19 01:32:00,1188E-4,5C000000,-0724,0938,11087,028.9,045.4,0.388,733.2,01.19,0.508
2013-08-19 01:33:00,1420E-4,5C000000,-0724,0939,11332,028.9,045.4,0.388,733.2,01.19,0.508
2013-08-19 01:34:00,1488E-4,5C000000,-0724,0939,11232,028.9,045.4,0.388,733.2,01.19,0.508
2013-08-19 01:35:00,2377E-4,5C000000,-0724,0939,11267,028.9,045.4,0.388,733.2,01.19,0.508
2013-08-19 01:36:00,2021E-4,5C000000,-0724,0939,11210,028.9,045.4,0.389,733.2,01.19,0.508
2013-08-19 01:37:00,1790E-4,5C000000,-0724,0939,11075,028.9,045.4,0.388,733.3,01.19,0.508
2013-08-19 01:38:00,2284E-4,5C000000,-0724,0940,11103,028.9,045.4,0.388,733.3,01.19,0.508
2013-08-19 01:39:00,1546E-4,5C000000,-0724,0939,11176,028.9,045.4,0.388,733.3,01.19,0.508
2013-08-19 01:40:00,1572E-4,5C000000,-0724,0939,11080,028.9,045.4,0.388,733.3,01.19,0.508
2013-08-19 01:41:00,1695E-4,5C000000,-0724,0939,11108,028.9,045.4,0.388,733.2,01.19,0.508
2013-08-19 01:42:00,1894E-4,5C000000,-0724,0939,11184,028.9,045.4,0.388,733.2,01.19,0.508
2013-08-19 01:43:00,1862E-4,5C000000,-0724,0939,11132,028.9,045.4,0.388,733.2,01.19,0.508
2013-08-19 01:44:00,9676E-5,5C000000,-0724,0939,11163,028.9,045.4,0.388,733.2,01.19,0.508
2013-08-19 01:45:00,1683E-4,5C000000,-0724,0937,11183,028.9,045.4,0.388,733.2,01.19,0.508
2013-08-19 01:46:00,1050E-4,5C000000,-0724,0938,11185,028.9,045.4,0.388,733.2,01.19,0.508
2013-08-19 01:47:00,1235E-4,5C000000,-0724,0938,11193,028.9,045.4,0.388,733.3,01.19,0.508
2013-08-19 01:48:00,2453E-4,5C000000,-0724,0938,11133,028.9,045.4,0.388,733.2,01.19,0.508
2013-08-19 01:49:00,1195E-4,5C000000,-0724,0938,11281,028.9,045.4,0.388,733.2,01.19,0.508
2013-08-19 01:50:00,2507E-4,5C000000,-0724,0939,11305,028.9,045.4,0.388,733.3,01.19,0.508
2013-08-19 01:51:00,1558E-4,5C000000,-0724,0939,11355,028.9,045.4,0.388,733.2,01.19,0.508
2013-08-19 01:52:00,9933E-5,5C000000,-0724,0939,11138,028.9,045.4,0.388,733.3,01.19,0.508
2013-08-19 01:53:00,1210E-4,5C000000,-0724,0938,10997,028.9,045.4,0.388,733.2,01.19,0.508
2013-08-19 01:54:00,1782E-4,5C000000,-0724,0939,10997,028.9,045.4,0.388,733.2,01.19,0.508
2013-08-19 01:55:00,1380E-4,5C000000,-0724,0939,11250,028.9,045.4,0.388,733.2,01.19,0.508
2013-08-19 01:56:00,4702E-5,5C000000,-0724,0938,11184,028.9,045.4,0.388,733.3,01.19,0.508
2013-08-19 01:57:00,1889E-4,5C000000,-0724,0937,11156,028.9,045.4,0.388,733.3,01.19,0.508
2013-08-19 01:58:00,9837E-5,5C000000,-0724,0939,11080,028.9,045.4,0.388,733.2,01.19,0.508
2013-08-19 01:59:00,1346E-4,5C000000,-0724,0939,10995,028.9,045.4,0.388,733.2,01.19,0.508
2013-08-19 02:00:00,8248E-5,5C000000,-0724,0939,10964,028.9,045.4,0.388,733.1,01.19,0.508
2013-08-19 02:01:00,2760E-4,5C000000,-0724,0940,10970,028.9,045.4,0.388,733.2,01.19,0.508
2013-08-19 02:02:00,1828E-4,5C000000,-0724,0939,11169,028.9,045.4,0.388,733.3,01.19,0.508
2013-08-19 02:03:00,1730E-4,5C000000,-0724,0938,11196,028.9,045.4,0.388,733.3,01.19,0.508
2013-08-19 02:04:00,1233E-4,5C000000,-0724,0939,10990,028.9,045.4,0.388,733.3,01.19,0.508
2013-08-19 02:05:00,1247E-4,5C000000,-0724,0938,10934,028.9,045.4,0.388,733.3,01.19,0.508
2013-08-19 02:06:00,1897E-4,5C000000,-0724,0938,11127,028.9,045.4,0.388,733.3,01.19,0.508
2013-08-19 02:07:00,2168E-4,5C000000,-0724,0939,11221,028.9,045.4,0.388,733.3,01.19,0.508
2013-08-19 02:08:00,1910E-4,5C000000,-0724,0938,11218,029.0,045.4,0.388,733.3,01.19,0.508
2013-08-19 02:09:00,2104E-4,5C000000,-0724,0938,11114,028.9,045.4,0.388,733.2,01.19,0.508
2013-08-19 02:10:00,1061E-4,5C000000,-0724,0940,11130,028.9,045.4,0.388,733.2,01.19,0.508
2013-08-19 02:11:00,1953E-4,5C000000,-0724,0940,11220,028.9,045.4,0.388,733.2,01.19,0.508
2013-08-19 02:12:00,2136E-4,5C000000,-0724,0937,11040,028.9,045.4,0.388,733.3,01.19,0.508
2013-08-19 02:13:00,1283E-4,5C000000,-0724,0938,11038,028.9,045.4,0.388,733.3,01.19,0.508
2013-08-19 02:14:00,2100E-4,5C000000,-0724,0940,11197,028.9,045.4,0.388,733.3,01.19,0.508
2013-08-19 02:15:00,1685E-4,5C000000,-0724,0938,11109,029.0,045.4,0.388,733.3,01.19,0.508
2013-08-19 02:16:00,1107E-4,5C000000,-0724,0938,11172,029.0,045.4,0.388,733.3,01.19,0.508
2013-08-19 02:17:00,1867E-4,5C000000,-0724,0937,11152,028.9,045.4,0.388,733.3,01.19,0.508
2013-08-19 02:18:00,9574E-5,5C000000,-0724,0938,11261,028.9,045.4,0.388,733.3,01.19,0.508
2013-08-19 02:19:00,1770E-4,5C000000,-0724,0938,10990,028.9,045.4,0.388,733.4,01.19,0.508
2013-08-19 02:20:00,1478E-4,5C000000,-0724,0938,11005,028.9,045.4,0.388,733.3,01.19,0.508
2013-08-19 02:21:00,1706E-4,5C000000,-0724,0939,11207,028.9,045.4,0.388,733.2,01.19,0.508
2013-08-19 02:22:00,1690E-4,5C000000,-0724,0939,11244,028.9,045.4,0.388,733.3,01.19,0.508
2013-08-19 02:23:00,1951E-4,5C000000,-0724,0939,10858,028.9,045.4,0.388,733.3,01.19,0.508
2013-08-19 02:24:00,2264E-4,5C000000,-0724,0938,11122,028.9,045.4,0.388,733.2,01.19,0.508
2013-08-19 02:25:00,1405E-4,5C000000,-0724,0938,11199,028.9,045.4,0.388,733.3,01.19,0.508
2013-08-19 02:26:00,1640E-4,5C000000,-0724,0938,11149,028.9,045.4,0.388,733.3,01.19,0.508
2013-08-19 02:27:00,1105E-4,5C000000,-0724,0938,11188,028.9,045.4,0.388,733.3,01.19,0.508
2013-08-19 02:28:00,1483E-4,5C000000,-0724,0938,11170,029.0,045.4,0.388,733.3,01.19,0.508
2013-08-19 02:29:00,2064E-4,5C000000,-0724,0938,11300,029.0,045.4,0.388,733.3,01.19,0.508
2013-08-19 02:30:00,1301E-4,5C000000,-0724,0937,11234,028.9,045.4,0.388,733.3,01.19,0.508
2013-08-19 02:31:00,1838E-4,5C000000,-0724,0938,11173,029.0,045.4,0.388,733.4,01.19,0.508
2013-08-19 02:32:00,1286E-4,5C000000,-0724,0939,11258,028.9,045.4,0.388,733.4,01.19,0.508
2013-08-19 02:33:00,1755E-4,5C000000,-0724,0938,11111,029.0,045.4,0.388,733.4,01.19,0.508
2013-08-19 02:34:00,1308E-4,5C000000,-0724,0937,11401,029.0,045.4,0.388,733.4,01.19,0.508
2013-08-19 02:35:00,1933E-4,5C000000,-0724,0938,11127,029.0,045.4,0.388,733.4,01.19,0.508
2013-08-19 02:36:00,1253E-4,5C000000,-0724,0939,11175,029.0,045.4,0.388,733.4,01.19,0.508
2013-08-19 02:37:00,1030E-4,5C000000,-0724,0937,10987,029.0,045.4,0.387,733.4,01.19,0.508
2013-08-19 02:38:00,2802E-4,5C000000,-0724,0937,11085,029.0,045.4,0.388,733.4,01.19,0.508
2013-08-19 02:39:00,2027E-4,5C000000,-0724,0938,11059,029.0,045.4,0.388,733.4,01.19,0.508
2013-08-19 02:40:00,1799E-4,5C000000,-0724,0939,11128,029.0,045.4,0.388,733.4,01.19,0.508
2013-08-19 02:41:00,1417E-4,5C000000,-0724,0938,11018,029.0,045.4,0.388,733.5,01.19,0.508
2013-08-19 02:42:00,2264E-4,5C000000,-0724,0938,11123,029.0,045.4,0.388,733.5,01.19,0.508
2013-08-19 02:43:00,2114E-4,5C000000,-0724,0938,10883,029.0,045.4,0.388,733.4,01.19,0.508
2013-08-19 02:44:00,1241E-4,5C000000,-0724,0938,10888,029.0,045.4,0.388,733.4,01.19,0.508
2013-08-19 02:45:00,2108E-4,5C000000,-0724,0938,11087,029.0,045.4,0.388,733.4,01.19,0.508
2013-08-19 02:46:00,2405E-4,5C000000,-0724,0938,11178,029.0,045.4,0.387,733.4,01.19,0.508
2013-08-19 02:47:00,1011E-4,5C000000,-0724,0939,11102,029.0,045.4,0.388,733.4,01.19,0.508
2013-08-19 02:48:00,2004E-4,5C000000,-0724,0938,11218,029.0,045.4,0.387,733.4,01.19,0.508
2013-08-19 02:49:00,1476E-4,5C000000,-0724,0939,11231,029.0,045.4,0.388,733.5,01.19,0.508
2013-08-19 02:50:00,1234E-4,5C000000,-0724,0937,11084,029.0,045.4,0.388,733.4,01.19,0.508
2013-08-19 02:51:00,1741E-4,5C000000,-0724,0938,11274,029.0,045.4,0.388,733.4,01.19,0.508
2013-08-19 02:52:00,1016E-4,5C000000,-0724,0937,11086,029.0,045.4,0.388,733.5,01.19,0.508
2013-08-19 02:53:00,2455E-4,5C000000,-0724,0938,11215,029.0,045.4,0.387,733.5,01.19,0.508
2013-08-19 02:54:00,2377E-4,5C000000,-0724,0938,11091,029.0,045.4,0.388,733.5,01.19,0.508
2013-08-19 02:55:00,1769E-4,5C000000,-0724,0938,11229,029.0,045.4,0.387,733.5,01.19,0.508
2013-08-19 02:56:00,8971E-5,5C000000,-0724,0940,11113,029.0,045.4,0.388,733.5,01.19,0.508
2013-08-19 02:57:00,1613E-4,5C000000,-0724,0938,11169,029.0,045.4,0.388,733.4,01.19,0.508
2013-08-19 02:58:00,1277E-4,5C000000,-0724,0938,11042,029.0,045.4,0.388,733.5,01.19,0.508
2013-08-19 02:59:00,1137E-4,5C000000,-0724,0938,11117,029.0,045.4,0.388,733.5,01.19,0.508
2013-08-19 03:00:00,1947E-4,5C000000,-0724,0938,11137,029.0,045.4,0.387,733.5,01.19,0.508
2013-08-19 03:01:00,1759E-4,5C000000,-0724,0940,11170,029.0,045.4,0.388,733.5,01.19,0.508
2013-08-19 03:02:00,6162E-5,5C000000,-0724,0939,11009,029.0,045.4,0.387,733.5,01.19,0.508
2013-08-19 03:03:00,2079E-4,5C000000,-0724,0937,10954,029.0,045.4,0.388,733.5,01.19,0.508
2013-08-19 03:04:00,1755E-4,5C000000,-0724,0938,11232,029.1,045.4,0.388,733.5,01.19,0.508
2013-08-19 03:05:00,1038E-4,5C000000,-0724,0938,11224,029.0,045.4,0.388,733.5,01.19,0.508
2013-08-19 03:06:00,1412E-4,5C000000,-0724,0939,11148,029.1,045.4,0.388,733.5,01.19,0.508
2013-08-19 03:07:00,2265E-4,5C000000,-0724,0938,11231,029.1,045.4,0.388,733.5,01.19,0.508
2013-08-19 03:08:00,2110E-4,5C000000,-0724,0937,11131,029.1,045.4,0.388,733.5,01.19,0.508
2013-08-19 03:09:00,2771E-4,5C000000,-0724,0938,11224,029.1,045.4,0.388,733.6,01.19,0.508
2013-08-19 03:10:00,1042E-4,5C000000,-0724,0938,11283,029.1,045.4,0.388,733.6,01.19,0.508
2013-08-19 03:11:00,1732E-4,5C000000,-0724,0938,11126,029.1,045.4,0.388,733.6,01.19,0.508
2013-08-19 03:12:00,5991E-5,5C000000,-0724,0938,10975,029.1,045.4,0.387,733.5,01.19,0.508
2013-08-19 03:13:00,1793E-4,5C000000,-0724,0938,11090,029.1,045.4,0.388,733.6,01.19,0.508
2013-08-19 03:14:00,1775E-4,5C000000,-0724,0939,11058,029.1,045.4,0.387,733.6,01.19,0.508
2013-08-19 03:15:00,2208E-4,5C000000,-0724,0937,11195,029.1,045.4,0.388,733.6,01.19,0.508
2013-08-19 03:16:00,1604E-4,5C000000,-0724,0939,11067,029.1,045.4,0.388,733.6,01.19,0.508
2013-08-19 03:17:00,1695E-4,5C000000,-0724,0938,11022,029.1,045.4,0.387,733.6,01.19,0.508
2013-08-19 03:18:00,1413E-4,5C000000,-0724,0938,11100,029.1,045.4,0.388,733.6,01.19,0.508
2013-08-19 03:19:00,2678E-4,5C000000,-0724,0940,11029,029.1,045.4,0.387,733.6,01.19,0.508
2013-08-19 03:20:00,1713E-4,5C000000,-0724,0939,11051,029.1,045.4,0.388,733.5,01.19,0.508
2013-08-19 03:21:00,1885E-4,5C000000,-0724,0941,11165,029.1,045.4,0.388,733.5,01.19,0.508
2013-08-19 03:22:00,9881E-5,5C000000,-0724,0938,11179,029.1,045.4,0.387,733.5,01.19,0.508
2013-08-19 03:23:00,2741E-4,5C000000,-0724,0940,11161,029.1,045.4,0.388,733.5,01.19,0.508
2013-08-19 03:24:00,9478E-5,5C000000,-0724,0939,11171,029.1,045.4,0.387,733.5,01.19,0.508
2013-08-19 03:25:00,1516E-4,5C000000,-0724,0940,11099,029.1,045.4,0.388,733.5,01.19,0.508
2013-08-19 03:26:00,1481E-4,5C000000,-0724,0939,11097,029.1,045.4,0.387,733.4,01.19,0.508
2013-08-19 03:27:00,1665E-4,5C000000,-0724,0939,11188,029.1,045.4,0.388,733.5,01.19,0.508
2013-08-19 03:28:00,1936E-4,5C000000,-0724,0938,11027,029.2,045.4,0.388,733.5,01.19,0.508
2013-08-19 03:29:00,1760E-4,5C000000,-0724,0939,11198,029.2,045.4,0.387,733.5,01.19,0.508
2013-08-19 03:30:00,8502E-5,5C000000,-0724,0939,11001,029.2,045.4,0.388,733.5,01.19,0.508
2013-08-19 03:31:00,1306E-4,5C000000,-0724,0939,11276,029.2,045.4,0.387,733.5,01.19,0.508
2013-08-19 03:32:00,1772E-4,5C000000,-0724,0940,11118,029.2,045.4,0.388,733.5,01.19,0.508
2013-08-19 03:33:00,1713E-4,5C000000,-0724,0939,11175,029.2,045.4,0.388,733.5,01.19,0.508
2013-08-19 03:34:00,1763E-4,5C000000,-0724,0939,11165,029.2,045.4,0.387,733.5,01.19,0.508
2013-08-19 03:35:00,1060E-4,5C000000,-0724,0939,11094,029.2,045.4,0.388,733.5,01.19,0.508
2013-08-19 03:36:00,1672E-4,5C000000,-0724,0939,11232,029.2,045.4,0.387,733.5,01.19,0.508
2013-08-19 03:37:00,1170E-4,5C000000,-0724,0939,11130,029.2,045.4,0.388,733.6,01.19,0.508
2013-08-19 03:38:00,1076E-4,5C000000,-0724,0939,11041,029.2,045.4,0.387,733.6,01.19,0.508
2013-08-19 03:39:00,1762E-4,5C000000,-0724,0939,11114,029.2,045.4,0.387,733.6,01.19,0.508
2013-08-19 03:40:00,1838E-4,5C000000,-0724,0939,11123,029.2,045.4,0.388,733.6,01.19,0.508
2013-08-19 03:41:00,2038E-4,5C000000,-0724,0939,11110,029.2,045.4,0.387,733.6,01.19,0.508
2013-08-19 03:42:00,1528E-4,5C000000,-0724,0939,11011,029.2,045.4,0.388,733.7,01.19,0.508
2013-08-19 03:43:00,1290E-4,5C000000,-0724,0939,11081,029.2,045.4,0.388,733.7,01.19,0.508
2013-08-19 03:44:00,2733E-4,5C000000,-0724,0938,11175,029.2,045.4,0.387,733.7,01.19,0.508
2013-08-19 03:45:00,1656E-4,5C000000,-0724,0939,10989,029.2,045.4,0.388,733.7,01.19,0.508
2013-08-19 03:46:00,1032E-4,5C000000,-0724,0938,11236,029.3,045.4,0.387,733.7,01.19,0.508
2013-08-19 03:47:00,1028E-4,5C000000,-0724,0939,11224,029.2,045.4,0.387,733.7,01.19,0.508
2013-08-19 03:48:00,2058E-4,5C000000,-0724,0940,11149,029.3,045.4,0.388,733.7,01.19,0.508
2013-08-19 03:49:00,1906E-4,5C000000,-0724,0938,10951,029.2,045.4,0.387,733.7,01.19,0.508
2013-08-19 03:50:00,2434E-4,5C000000,-0724,0940,11297,029.3,045.4,0.388,733.7,01.19,0.508
2013-08-19 03:51:00,1411E-4,5C000000,-0724,0939,11146,029.3,045.4,0.388,733.7,01.19,0.508
2013-08-19 03:52:00,2589E-4,5C000000,-0724,0939,11096,029.3,045.4,0.387,733.7,01.19,0.508
2013-08-19 03:53:00,2298E-4,5C000000,-0724,0939,11077,029.3,045.4,0.388,733.6,01.19,0.508
2013-08-19 03:54:00,1560E-4,5C000000,-0724,0939,10970,029.3,045.4,0.387,733.6,01.19,0.508
2013-08-19 03:55:00,1737E-4,5C000000,-0724,0939,11070,029.3,045.4,0.387,733.6,01.19,0.508
2013-08-19 03:56:00,2637E-4,5C000000,-0724,0938,11164,029.3,045.4,0.388,733.7,01.19,0.508
2013-08-19 03:57:00,1117E-4,5C000000,-0724,0939,11116,029.3,045.4,0.387,733.7,01.19,0.508
2013-08-19 03:58:00,6425E-5,5C000000,-0724,0940,11182,029.3,045.4,0.387,733.6,01.19,0.508
2013-08-19 03:59:00,1918E-4,5C000000,-0724,0938,11128,029.3,045.4,0.388,733.6,01.19,0.508
2013-08-19 04:00:00,1804E-4,5C000000,-0724,0937,11211,029.3,045.4,0.387,733.7,01.19,0.508
2013-08-19 04:01:00,1180E-4,5C000000,-0724,0937,10862,029.3,045.4,0.387,733.7,01.19,0.508
2013-08-19 04:02:00,1857E-4,5C000000,-0724,0937,11126,029.3,045.4,0.388,733.7,01.19,0.508
2013-08-19 04:03:00,2144E-4,5C000000,-0724,0939,11184,029.3,045.4,0.387,733.7,01.19,0.508
2013-08-19 04:04:00,8293E-5,5C000000,-0724,0939,10956,029.3,045.4,0.387,733.8,01.19,0.508
2013-08-19 04:05:00,1890E-4,5C000000,-0724,0939,11212,029.3,045.4,0.388,733.6,01.19,0.508
2013-08-19 04:06:00,2484E-4,5C000000,-0724,0939,11202,029.3,045.4,0.387,733.7,01.19,0.508
2013-08-19 04:07:00,2623E-4,5C000000,-0724,0939,11249,029.4,045.4,0.387,733.7,01.19,0.508
2013-08-19 04:08:00,1237E-4,5C000000,-0724,0939,11144,029.3,045.4,0.387,733.7,01.19,0.508
2013-08-19 04:09:00,2351E-4,5C000000,-0724,0940,11097,029.4,045.4,0.387,733.7,01.19,0.508
2013-08-19 04:10:00,1280E-4,5C000000,-0724,0940,11142,029.4,045.4,0.387,733.6,01.19,0.508
2013-08-19 04:11:00,1845E-4,5C000000,-0724,0939,10940,029.4,045.4,0.387,733.6,01.19,0.508
2013-08-19 04:12:00,2141E-4,5C000000,-0724,0939,11139,029.4,045.4,0.387,733.6,01.19,0.508
2013-08-19 04:13:00,1423E-4,5C000000,-0724,0939,11069,029.4,045.4,0.388,733.6,01.19,0.508
2013-08-19 04:14:00,1379E-4,5C000000,-0724,0939,11061,029.4,045.4,0.387,733.6,01.19,0.508
2013-08-19 04:15:00,1700E-4,5C000000,-0724,0939,11244,029.4,045.4,0.387,733.6,01.19,0.508
2013-08-19 04:16:00,2073E-4,5C000000,-0724,0939,10869,029.4,045.4,0.388,733.6,01.19,0.508
2013-08-19 04:17:00,1435E-4,5C000000,-0724,0938,11133,029.4,045.4,0.387,733.6,01.19,0.508
2013-08-19 04:18:00,9056E-5,5C000000,-0724,0938,11045,029.4,045.4,0.387,733.6,01.19,0.508
2013-08-19 04:19:00,1260E-4,5C000000,-0724,0939,11083,029.4,045.4,0.388,733.6,01.19,0.508
2013-08-19 04:20:00,7248E-5,5C000000,-0724,0939,11062,029.4,045.4,0.387,733.6,01.19,0.508